This demonstration page uses our WeatherBlox Daily Observations layout. Learn more.

Left ArrowRight Arrow

41.86663, -103.66717

Hourly Observations for September 2, 2020

Temp ( °F °C ) Dew Point ( °F °C ) Humidity (%) Winds ( mph kmh ) Pressure ( in mb ) Visibility ( mi km ) Precip ( " mm )
12:53 am 00:53 Clear 52 11.1 41 5 66 66 W 3 6 29.96 1015 10 16.0934 0 0
1:53 am 01:53 Clear 52 11.1 39 3.9 61 61 NW 8 13 29.96 1015 10 16.0934 0 0
2:53 am 02:53 Clear 51 10.6 39 3.9 64 64 NNW 9 15 29.95 1014 10 16.0934 0 0
3:53 am 03:53 Clear 51 10.6 38 3.3 61 61 NNW 10 17 29.94 1014 10 16.0934 0 0
4:53 am 04:53 Clear 50 10 38 3.3 63 63 WNW 7 11 29.95 1014 10 16.0934 0 0
5:53 am 05:53 Clear 46 7.8 39 3.9 77 77 NW 7 11 29.96 1015 10 16.0934 0 0
6:53 am 06:53 Sunny 47 8.3 40 4.4 77 77 NNW 6 9 29.98 1015 10 16.0934 0 0
7:53 am 07:53 Sunny 56 13.3 40 4.4 55 55 NW 5 7 30 1016 10 16.0934 0 0
8:53 am 08:53 Sunny 63 17.2 40 4.4 43 43 WNW 5 7 29.98 1015 10 16.0934 0 0
9:53 am 09:53 Sunny 72 22.2 41 5 33 33 Calm 29.96 1015 10 16.0934 0 0
10:53 am 10:53 Sunny 79 26.1 41 5 26 26 VRB 5 7 29.93 1014 10 16.0934 0 0
11:53 am 11:53 Sunny 84 28.9 39 3.9 20 20 undefined N/A 29.89 1012 10 16.0934 0 0
12:53 pm 12:53 Sunny 89 31.7 36 2.2 15 15 W 10 17 29.84 1011 10 16.0934 0 0
1:53 pm 13:53 Sunny 91 32.8 38 3.3 15 15 W 15 24 29.79 1009 10 16.0934 0 0
2:53 pm 14:53 Sunny 93 33.9 38 3.3 14 14 W 18 30 29.76 1008 10 16.0934 0 0
3:53 pm 15:53 Sunny 94 34.4 37 2.8 14 14 W 13 20 29.73 1007 10 16.0934 0 0
4:53 pm 16:53 Sunny 95 35 37 2.8 13 13 undefined N/A 29.7 1006 10 16.0934 0 0
5:53 pm 17:53 Sunny 93 33.9 35 1.7 13 13 W 14 22 29.69 1005 10 16.0934 0 0
6:53 pm 18:53 Sunny 85 29.4 38 3.3 19 19 W 6 9 29.71 1006 8 12.87472 0 0
7:53 pm 19:53 Clear 80 26.7 42 5.6 26 26 undefined N/A 29.71 1006 10 16.0934 0 0
8:53 pm 20:53 Clear 71 21.7 45 7.2 39 39 NW 5 7 29.75 1007 10 16.0934 0 0
9:53 pm 21:53 Clear 66 18.9 42 5.6 42 42 N 6 9 29.75 1008 10 16.0934 0 0
10:53 pm 22:53 Clear 60 15.6 44 6.7 56 56 N 6 9 29.77 1008 10 16.0934 0 0
11:53 pm 23:53 Clear 59 15 39 3.9 48 48 NW 8 13 29.79 1009 10 16.0934 0 0

Powered by AerisWeather